Wind_Speed
1 2 3 2 8 6 6 4 2 4 8 3 7 10 10 13 5 10 12 19 22 24 28 31 31 30 30 29 24 25 31 31 29 28 28 28 29 30 36 37 34 38 38 38
2 7 8 6 3 2 1 3 3 5 3 5 8 13 14 7 4 6 20 20 23 27 31 32 33 37 38 34 28 25 27 28 28 29 29 30 26 28 31 34 36 36 37 38
8 6 5 2 1 1 5 3 5 3 8 7 7 5 3 6 5 18 17 18 20 25 30 33 36 36 38 37 33 26 22 27 27 28 28 28 26 27 29 33 34 35 38 36
7 3 3 1 1 1 3 6 3 4 6 2 7 4 2 3 2 7 15 20 23 26 29 31 34 36 36 38 32 28 26 19 25 25 28 29 30 31 31 31 32 34 34 39
3 5 3 3 3 1 5 5 5 5 6 4 3 1 4 4 3 6 11 17 21 25 28 32 34 35 32 27 22 20 25 18 20 23 24 28 30 28 25 29 31 31 32 36
5 3 3 4 3 2 7 5 6 3 2 3 7 6 4 3 3 5 9 15 18 23 26 31 33 37 33 23 16 17 17 20 18 20 24 25 26 24 24 26 26 25 31 32
3 3 3 1 2 1 2 2 1 2 1 4 6 3 6 7 6 6 9 15 14 18 24 32 35 38 35 27 17 12 12 20 12 17 18 23 22 24 25 24 23 29 29 31
2 1 6 8 3 1 1 1 1 3 3 3 4 5 5 7 9 12 11 12 13 19 23 30 33 38 33 26 18 9 9 14 15 13 13 14 17 19 23 22 25 27 27 27
1 3 4 6 2 1 2 1 2 1 4 2 4 3 4 7 8 11 10 10 11 19 22 28 32 38 30 23 16 14 8 5 10 9 10 13 15 16 18 20 21 22 23 23
2 1 3 4 1 2 2 2 1 2 3 4 4 4 6 8 8 6 6 4 11 16 20 24 26 31 31 20 16 17 9 11 3 4 10 12 14 17 16 20 19 16 18 23
1 1 2 4 6 7 3 3 1 2 2 2 4 5 2 11 11 8 6 5 8 11 15 18 22 24 28 28 19 17 8 4 3 4 4 5 6 10 10 10 10 17 13 14
2 3 3 5 5 3 4 3 4 2 0 3 2 6 3 5 6 9 9 7 5 7 10 11 15 18 22 25 28 26 19 13 14 13 8 11 9 7 3 4 4 4 7 8
2 2 4 1 2 3 2 5 3 2 2 5 3 5 4 7 9 14 13 8 5 6 7 6 9 13 14 18 20 21 22 22 19 17 17 16 17 14 13 13 13 8 9 7
3 3 4 4 3 4 5 4 11 6 3 5 12 13 5 8 10 11 16 9 8 7 7 5 5 6 9 10 12 14 16 16 15 14 15 15 14 13 13 13 10 9 9 8
2 4 5 8 14 13 14 13 11 14 13 7 6 11 11 9 12 16 15 13 11 10 8 8 6 5 3 4 6 8 9 9 9 11 10 11 13 11 11 10 8 7 7 5
6 4 6 7 13 8 10 14 16 18 16 20 18 23 18 19 17 15 14 12 15 13 12 11 8 7 4 3 2 3 5 7 8 7 7 7 8 7 5 3 3 5 6 6
3 2 3 5 7 11 7 6 15 11 12 9 16 16 3 7 5 12 13 17 17 17 16 15 12 9 8 6 5 3 4 5 6 6 8 9 10 10 9 9 9 8 6 5
3 2 3 4 7 3 7 3 1 6 11 12 12 8 9 8 10 10 15 17 19 19 18 17 15 13 11 8 6 4 5 5 6 7 8 8 8 7 7 6 6 5 5 5
8 3 3 2 3 10 9 3 2 1 3 5 3 6 11 13 1 11 11 17 21 19 20 19 17 14 12 9 8 6 6 6 8 10 9 9 8 8 8 8 8 8 7 6
4 6 2 2 2 5 2 4 2 2 5 4 2 2 5 7 2 4 14 18 18 14 17 17 16 16 13 12 10 8 8 7 9 11 11 9 9 9 9 8 8 7 6 6
3 4 9 6 5 8 4 9 6 3 5 6 1 3 6 3 6 9 14 10 13 13 16 17 18 16 13 13 11 10 9 9 9 11 10 9 9 9 9 7 6 6 5 5
7 5 5 5 5 9 14 6 6 2 6 3 3 6 9 11 15 15 16 17 14 16 18 20 19 17 17 14 11 11 11 9 9 10 9 9 9 7 5 5 5 5 6 5
4 6 3 7 6 5 16 6 10 4 5 8 10 9 9 13 18 20 19 20 17 17 20 20 19 20 17 14 13 13 11 10 11 10 10 9 7 5 4 4 5 5 5 6
5 16 5 4 5 4 12 18 20 15 15 13 10 12 15 18 19 22 20 16 17 18 20 19 21 20 17 15 13 13 10 10 10 10 10 9 7 5 5 5 6 6 7 7
7 1 4 9 15 25 30 24 19 11 8 7 12 16 19 18 19 19 17 14 16 19 20 20 22 20 18 15 13 11 10 9 10 9 8 7 7 6 6 6 6 6 8 9
20 17 10 10 9 15 6 5 3 7 12 15 19 19 17 18 22 18 18 13 15 19 21 22 21 20 19 15 13 11 9 9 9 9 8 7 6 6 6 6 6 7 8 9
Wind_Direction
178 203 143 119 39 21 6 355 280 300 48 22 251 271 277 290 21 20 8 358 347 335 319 312 308 298 286 278 279 289 286 264 252 253 247 249 245 245 241 243 237 230 231 232
172 75 53 54 51 346 24 285 277 83 165 274 271 280 272 241 58 54 24 6 349 334 329 325 321 317 308 295 282 271 280 275 259 242 246 247 248 241 242 247 241 230 231 235
64 74 119 147 144 265 203 284 11 348 341 275 318 276 109 103 29 28 15 359 344 334 329 328 324 321 319 306 289 268 274 273 260 245 243 245 239 236 241 245 251 242 231 234
71 121 136 115 320 345 291 33 358 321 34 292 39 275 227 21 344 39 4 354 343 342 339 337 336 332 325 313 293 268 259 259 259 252 241 240 242 234 238 241 251 247 237 228
74 146 175 213 47 302 64 351 301 294 298 323 292 166 227 329 324 345 350 344 338 342 344 346 340 339 329 326 307 277 254 253 255 240 246 239 242 243 244 244 251 253 244 235
99 57 338 357 16 316 340 305 266 226 219 267 214 163 232 219 246 304 328 328 334 346 342 343 347 348 339 329 312 285 259 248 253 250 235 242 244 241 238 242 244 250 244 240
326 175 129 236 183 116 251 307 252 259 275 234 138 211 260 189 208 238 273 300 314 326 340 353 351 350 345 342 327 294 254 249 257 254 252 237 245 238 237 249 252 249 251 242
329 210 184 164 261 167 184 15 81 279 345 321 172 238 266 194 197 224 256 287 304 330 342 348 348 355 353 353 358 314 270 259 238 257 264 242 238 249 244 250 252 253 251 250
252 127 101 189 52 310 191 139 3 3 219 272 234 268 248 189 215 226 257 287 328 341 346 347 353 359 2 4 31 41 341 231 220 242 229 227 232 241 244 248 251 253 250 243
26 261 158 114 91 277 336 123 178 149 276 270 261 257 232 206 218 253 259 308 334 339 342 349 359 2 18 19 47 69 43 69 80 259 242 226 226 234 240 247 246 246 243 234
326 251 147 144 200 169 172 184 168 304 241 283 308 262 247 198 198 210 233 289 322 337 342 348 355 9 18 31 48 64 69 50 61 120 133 213 228 236 234 229 230 239 252 253
85 306 280 237 98 25 140 122 162 244 201 255 319 276 113 184 190 214 242 269 304 325 338 346 354 8 16 31 39 54 71 81 94 100 110 109 113 112 110 159 163 205 248 239
67 249 312 151 88 143 240 176 187 288 357 233 294 267 169 194 199 225 241 251 267 295 310 329 346 10 15 20 31 46 53 60 66 77 88 97 102 103 103 100 101 108 117 140
334 277 245 233 302 336 243 184 190 182 200 255 243 272 221 217 227 220 233 227 245 253 272 296 319 355 19 18 21 27 35 43 45 50 61 69 66 71 85 91 92 94 86 94
234 270 297 276 278 279 278 267 214 206 209 235 280 295 307 289 214 216 230 210 224 233 250 265 277 286 337 23 22 16 19 25 23 15 17 27 23 25 33 43 53 50 46 43
182 263 304 281 268 240 264 253 244 240 226 236 254 273 278 286 185 202 213 208 217 230 231 239 258 269 268 286 338 360 1 2 1 6 9 2 5 15 15 31 12 9 357 10
207 242 351 268 346 309 288 235 237 241 238 240 251 263 330 334 210 204 211 218 228 232 234 241 231 242 252 260 269 303 341 358 3 6 5 1 358 2 7 13 15 12 17 18
273 257 213 273 320 320 238 123 323 221 256 227 244 268 276 251 280 258 221 228 236 236 232 239 238 231 238 250 263 286 320 338 340 341 341 343 345 349 352 353 351 348 341 335
202 244 271 236 260 269 292 186 214 261 307 37 44 347 320 321 334 282 264 240 237 237 235 234 238 237 234 237 251 274 297 316 326 329 331 334 337 333 332 332 333 335 337 341
230 213 274 308 226 259 213 172 171 70 266 123 88 351 343 337 322 268 328 263 236 239 231 225 226 228 235 234 243 251 273 293 308 314 316 323 330 324 325 325 331 342 345 350
186 221 223 234 262 278 181 149 149 154 233 150 121 311 318 301 267 305 308 293 255 235 225 217 224 227 225 237 244 253 266 284 300 306 310 315 318 318 323 330 335 340 344 352
185 183 195 192 227 259 140 114 181 175 159 146 307 299 289 294 300 299 299 284 269 229 219 226 225 217 223 235 239 253 268 281 293 301 305 305 307 310 318 322 333 339 354 3
271 216 237 195 220 179 193 222 205 224 248 286 299 289 288 298 299 300 293 281 264 244 232 229 225 223 228 227 233 249 268 284 298 301 301 299 292 291 296 306 320 328 335 345
240 257 235 342 285 273 231 240 255 259 270 263 268 285 297 292 293 293 298 283 251 240 232 228 221 227 228 227 233 248 263 276 288 294 298 295 287 286 300 311 319 328 327 333
219 208 208 260 273 281 280 278 257 268 225 262 286 287 286 289 293 287 287 281 254 240 230 228 223 227 228 228 232 244 263 281 290 293 289 280 281 292 301 311 317 320 317 320
220 238 222 247 240 243 265 120 202 249 273 283 290 286 286 288 294 290 282 265 254 233 226 223 225 227 231 234 236 244 262 278 286 283 277 271 275 291 306 316 316 314 312 308
Height
1498 1500 1504 1500 1502 1502 1502 1502 1501 1500 1503 1506 1504 1499 1493 1490 1490 1491 1492 1492 1492 1489 1486 1482 1477 1474 1470 1468 1466 1465 1463 1462 1463 1465 1465 1466 1467 1470 1470 1472 1476 1479 1482 1483
1500 1502 1503 1505 1506 1506 1505 1504 1503 1504 1504 1504 1500 1494 1487 1486 1489 1491 1493 1492 1491 1487 1483 1478 1473 1468 1464 1460 1457 1456 1456 1455 1455 1458 1459 1461 1462 1464 1466 1466 1469 1472 1475 1477
1499 1507 1507 1507 1508 1505 1503 1504 1505 1509 1505 1498 1500 1491 1485 1486 1488 1490 1493 1494 1492 1487 1481 1474 1468 1462 1455 1450 1449 1448 1448 1449 1449 1451 1454 1456 1458 1458 1460 1461 1462 1465 1468 1471
1505 1510 1509 1509 1507 1508 1506 1507 1507 1507 1515 1523 1507 1524 1485 1488 1488 1492 1493 1492 1489 1485 1480 1473 1466 1458 1450 1442 1438 1438 1439 1441 1443 1445 1447 1449 1451 1452 1454 1454 1457 1459 1461 1464
1510 1510 1510 1507 1506 1508 1510 1509 1509 1508 1510 1516 1499 1520 1491 1489 1490 1492 1491 1491 1487 1484 1479 1471 1464 1455 1445 1437 1431 1430 1432 1434 1437 1439 1442 1444 1445 1448 1449 1450 1452 1453 1455 1458
1507 1509 1509 1507 1508 1509 1509 1508 1506 1505 1509 1523 1498 1509 1495 1493 1492 1490 1489 1487 1486 1484 1479 1470 1461 1452 1443 1434 1429 1427 1426 1429 1432 1434 1436 1439 1441 1442 1445 1446 1447 1448 1449 1452
1509 1506 1508 1510 1509 1510 1509 1508 1523 1506 1514 1517 1487 1498 1487 1485 1487 1487 1488 1486 1483 1480 1475 1467 1459 1451 1441 1432 1426 1424 1424 1426 1429 1431 1433 1435 1437 1439 1440 1441 1443 1444 1445 1446
1511 1512 1507 1507 1506 1506 1509 1509 1511 1509 1508 1502 1483 1499 1483 1480 1483 1484 1483 1482 1480 1478 1473 1467 1460 1452 1440 1431 1424 1422 1422 1424 1427 1429 1430 1431 1434 1436 1438 1439 1439 1440 1441 1443
1510 1505 1504 1506 1505 1507 1511 1512 1510 1518 1510 1508 1490 1484 1478 1479 1480 1480 1480 1481 1480 1476 1472 1467 1461 1452 1441 1433 1426 1423 1422 1422 1425 1426 1428 1429 1431 1433 1434 1435 1435 1435 1435 1438
1512 1508 1501 1506 1507 1508 1507 1511 1513 1515 1514 1501 1484 1477 1475 1480 1478 1477 1479 1479 1477 1475 1472 1468 1462 1456 1446 1438 1431 1426 1425 1424 1425 1427 1427 1428 1429 1430 1430 1432 1432 1433 1433 1434
1514 1511 1505 1505 1505 1502 1510 1509 1513 1514 1509 1503 1497 1476 1470 1470 1474 1476 1475 1474 1474 1473 1471 1468 1465 1459 1454 1445 1436 1431 1429 1428 1428 1428 1428 1427 1428 1429 1429 1430 1431 1431 1431 1432
1510 1509 1515 1499 1491 1491 1494 1500 1507 1509 1503 1501 1497 1486 1466 1470 1472 1473 1472 1471 1472 1471 1470 1469 1466 1462 1457 1452 1446 1439 1435 1434 1432 1431 1429 1429 1429 1429 1429 1429 1429 1429 1430 1430
1509 1509 1516 1498 1497 1496 1499 1499 1504 1506 1505 1506 1499 1480 1467 1468 1467 1469 1469 1469 1470 1469 1469 1467 1465 1463 1460 1457 1453 1448 1444 1441 1438 1435 1434 1432 1431 1431 1430 1430 1429 1429 1429 1430
1512 1508 1506 1514 1495 1494 1495 1492 1499 1503 1506 1492 1481 1468 1467 1467 1466 1465 1466 1466 1468 1467 1467 1466 1464 1462 1461 1459 1456 1454 1450 1447 1445 1443 1440 1437 1435 1434 1432 1431 1429 1431 1431 1431
1509 1509 1505 1500 1492 1491 1490 1488 1488 1492 1488 1486 1465 1464 1461 1459 1460 1459 1461 1461 1463 1464 1464 1465 1464 1462 1461 1460 1458 1456 1453 1452 1449 1447 1444 1441 1439 1436 1434 1432 1432 1431 1431 1430
1503 1509 1501 1499 1484 1483 1484 1477 1475 1474 1477 1479 1474 1465 1458 1448 1450 1455 1456 1458 1459 1460 1460 1460 1461 1462 1461 1459 1458 1456 1454 1452 1451 1449 1446 1444 1442 1440 1438 1437 1436 1434 1433 1431
1501 1503 1507 1502 1485 1484 1484 1464 1461 1463 1464 1464 1467 1456 1454 1452 1451 1451 1453 1454 1455 1456 1457 1456 1456 1458 1460 1459 1458 1456 1455 1453 1451 1450 1448 1445 1443 1441 1439 1437 1436 1435 1434 1432
1501 1501 1505 1507 1496 1505 1460 1455 1454 1457 1453 1452 1452 1452 1450 1449 1448 1447 1447 1449 1451 1453 1453 1454 1455 1455 1456 1457 1457 1455 1454 1453 1452 1450 1448 1446 1444 1443 1441 1439 1438 1437 1436 1435
1498 1503 1507 1509 1502 1474 1455 1455 1455 1455 1452 1449 1450 1450 1448 1446 1445 1444 1445 1444 1445 1447 1448 1450 1452 1454 1453 1453 1454 1454 1454 1452 1451 1449 1448 1446 1444 1442 1441 1439 1438 1437 1435 1435
1496 1500 1506 1494 1498 1480 1451 1452 1453 1454 1461 1448 1448 1449 1448 1446 1451 1446 1442 1438 1442 1443 1444 1445 1449 1452 1453 1452 1452 1452 1452 1451 1451 1450 1448 1445 1444 1442 1440 1438 1437 1436 1435 1434
1502 1503 1503 1502 1495 1468 1446 1448 1452 1460 1455 1445 1447 1447 1446 1447 1446 1444 1441 1442 1442 1442 1441 1441 1443 1446 1449 1450 1451 1451 1450 1449 1448 1447 1446 1444 1442 1440 1439 1437 1436 1435 1434 1434
1487 1491 1492 1488 1486 1476 1445 1450 1453 1444 1442 1444 1444 1444 1443 1443 1442 1441 1439 1438 1438 1439 1438 1438 1439 1440 1442 1445 1447 1448 1448 1447 1445 1443 1442 1440 1439 1437 1437 1435 1435 1434 1433 1432
1483 1470 1469 1466 1458 1443 1442 1440 1440 1440 1441 1442 1442 1442 1441 1439 1437 1437 1436 1434 1433 1435 1435 1436 1437 1438 1439 1440 1441 1442 1443 1444 1443 1441 1439 1438 1437 1435 1434 1433 1432 1432 1430 1429
1463 1461 1465 1457 1438 1437 1438 1437 1438 1438 1437 1438 1439 1439 1438 1436 1434 1432 1431 1430 1429 1430 1431 1433 1434 1435 1437 1439 1440 1440 1441 1441 1439 1438 1438 1437 1436 1435 1433 1431 1430 1429 1428 1428
1457 1453 1450 1446 1438 1438 1435 1434 1435 1434 1434 1434 1435 1435 1433 1432 1429 1428 1426 1425 1425 1426 1427 1428 1429 1431 1432 1434 1435 1437 1438 1438 1437 1435 1434 1434 1434 1433 1431 1429 1428 1428 1427 1427
1445 1433 1442 1430 1429 1429 1428 1429 1432 1433 1433 1431 1429 1428 1427 1426 1425 1423 1421 1421 1421 1422 1424 1425 1428 1428 1429 1431 1432 1432 1433 1433 1432 1432 1432 1431 1431 1430 1429 1428 1427 1426 1426 1425